Regional Weather Roundup
Issued by NWS

Home | Current Version | Previous Version | Text Only | Print | Product List | Glossary Off
Versions: 1 2 3 4 5 6 7 8 9 10 11 12 13 14 15 16 17 18 19 20 21 22 23 24 25 26 27 28 29 30 31 32 33 34 35 36 37 38 39 40 41 42 43 44 45 46 47 48 49 50

000
ASUS43 KLMK 261302
RWRKY
KENTUCKY REGIONAL WEATHER ROUNDUP
NATIONAL WEATHER SERVICE LOUISVILLE KY
800 AM EST SUN FEB 26 2017

NOTE "FAIR" INDICATES FEW OR NO CLOUDS BELOW 12,000 FEET
WITH NO SIGNIFICANT WEATHER AND/OR OBSTRUCTIONS TO VISIBILITY.

KYZ001>023-026-027-061>063-070>075-261400-
WESTERN AND SOUTH CENTRAL KENTUCKY

CITY           SKY/WX    TMP DP  RH WIND       PRES   REMARKS
PADUCAH        CLEAR     29  17  61 SE6       30.18F WCI  23
HENDERSON      CLEAR     25  18  74 S8        30.20S WCI  16
OWENSBORO      CLEAR     25  21  85 SE5       30.22S WCI  19
HOPKINSVILLE   CLEAR     25  20  82 E5        30.21S WCI  20
BOWLING GREEN  CLEAR     25  20  81 CALM      30.25R
GLASGOW        NOT AVBL
$$

KYZ024-025-028>034-038-045-046-053-261400-
NORTH CENTRAL KENTUCKY

CITY           SKY/WX    TMP DP  RH WIND       PRES   REMARKS
LOUISVILLE/SDF PTCLDY    27  16  63 CALM      30.23R
LOUISVILLE/LOU PTCLDY    27  18  69 S5        30.24R WCI  22
FORT KNOX      CLEAR     22  17  84 CALM      30.21R
$$

KYZ035>037-039>044-047>052-055>060-089>105-261400-
NORTHEAST KENTUCKY

CITY           SKY/WX    TMP DP  RH WIND       PRES   REMARKS
LEXINGTON      PTCLDY    24  17  74 SW5       30.22R WCI  18
COVINGTON      CLEAR     21  17  84 SW5       30.19R WCI  15
FRANKFORT      PTCLDY    23  16  74 SW5       30.22R WCI  17
$$

KYZ054-064>069-076>088-106>120-261400-
SOUTHEAST KENTUCKY

CITY           SKY/WX    TMP DP  RH WIND       PRES   REMARKS
JACKSON        CLEAR     26  19  74 CALM      30.19R
LONDON         CLEAR     24  21  88 CALM      30.23R
SOMERSET       PTCLDY    23  23 100 CALM      30.26R
MIDDLESBORO    CLEAR     24  22  94 CALM      30.24R
MONTICELLO     MOSUNNY   22  20  92 N10       30.26R WCI  11
$$





USA.gov is the U.S. government's official web portal to all federal, state and local government web resources and services.